Tracking 19288 objects as of 20-Nov-2018
HD Live streaming from Space Station
objects crossing your sky now

COSMOS 1808

Track COSMOS 1808 now!
10-day predictions
COSMOS 1808 is classified as:


NORAD ID: 17239
Int'l Code: 1986-100A
Perigee: 975.9 km
Apogee: 1,023.2 km
Inclination: 82.9 °
Period: 105.0 minutes
Semi major axis: 7370 km
RCS: 2.275 m2 (large)
Launch date: December 17, 1986
Source: Commonwealth of Independent States (former USSR) (CIS)
Launch site: PLESETSK MISSILE AND SPACE COMPLEX (PKMTR)
aabbcc
Your satellite tracking list
Your tracking list is empty




NASA's NSSDC Master Catalog

Two Line Element Set (TLE):
1 17239U 86100A   18324.22337510  .00000023  00000-0  90544-5 0  9990
2 17239  82.9375  53.2024 0032102 339.6763  38.8483 13.71993298598399
Source of the keplerian elements: AFSPC